Flag Weather past 2 weeks in Osterholz-Scharmbeck, Lower Saxony, Germany

Now
41 °F

Low clouds.


Feels Like: 38 °F
Forecast: 34 / 40 °F
Wind: 5 mph from East

Location: Bremen

Current Time: Nov 26, 2014 at 1:42:35 AM

Latest Report: Nov 26, 2014 at 1:00 AM


Visibility: 8 mi

Pressure: 30.25 "Hg

Humidity: 93%

Dew point: 39 °F

Location of Osterholz-ScharmbeckLocation

Historic Weather in Osterholz-Scharmbeck — Graph

°F

Osterholz-Scharmbeck temperature yesterday

Maximum temperature yesterday: 42 °F (at 1:00 PM)
Minimum temperature yesterday: 33 °F (at 8:00 AM)
Average temperature yesterday: 39 °F

Past Weeks' High & Low Weather Summary

 TemperatureHumidityPressure
High54 °F (Nov 14, 3:00 PM)100% (Nov 11, 12:00 AM)30.39 "Hg (Nov 11, 12:00 AM)
Low31 °F (Nov 21, 7:00 AM)69% (Nov 24, 2:00 PM)29.53 "Hg (Nov 16, 3:00 PM)
Average46 °F90%29.98 "Hg
* Reported Midnight between Nov 10 and Nov 11 — Midnight between Nov 25 and Nov 26, Osterholz-Scharmbeck, Weather by CustomWeather, © 2014

Note: Actual official high and low records may vary slightly from our data, if they occured in-between our weather recording intervals... More about our weather records

Advertising

Osterholz-Scharmbeck weather history for previous 24 hours

 ConditionsComfort  
Time TempWeatherWind HumidityBarometerVisibility
12:00 AM
Nov 26
41 °FLow clouds.5 mph93%30.27 "Hg6 mi
11:00 PM
Nov 25
42 °FLow clouds.5 mph92%30.29 "Hg6 mi
9:00 PM42 °FLow clouds.3 mph90%30.30 "Hg6 mi
8:00 PM41 °FFog.5 mph98%30.31 "Hg2 mi
7:00 PM40 °FFog.3 mph100%30.31 "Hg1 mi
6:00 PM40 °FFog.3 mph100%30.31 "Hg1 mi
5:00 PM41 °FFog.5 mph100%30.32 "Hg1 mi
3:00 PM42 °FFog.3 mph99%30.32 "Hg1 mi
2:00 PM42 °FFog.2 mph100%30.34 "Hg1 mi
1:00 PM42 °FFog.3 mph100%30.34 "Hg0 mi
12:00 PM41 °FFog.1 mph100%30.35 "Hg0 mi
11:00 AM40 °FFog.1 mph98%30.35 "Hg1 mi
9:00 AM33 °FFog.2 mph100%30.35 "Hg0 mi
8:00 AM33 °FFog.1 mph100%30.34 "Hg0 mi
7:00 AM35 °FFog.1 mph99%30.33 "Hg2 mi
6:00 AM36 °FFog.2 mph99%30.33 "Hg4 mi
5:00 AM37 °FFog.1 mph100%30.33 "Hg5 mi
3:00 AM39 °FFog.1 mph99%30.32 "Hg19 mi
2:00 AM38 °FPassing clouds.2 mph98%30.32 "Hg19 mi
1:00 AM40 °FPassing clouds.3 mph95%30.32 "Hg19 mi
Weather by CustomWeather, © 2014

See weather overviewHow to use our weather pages